SCP
0 0 0 0 0 0 0 0 0 0 0 0 0 0 0 0 0 0 0 0 0 0 0 0 0 0 0 0 0 0 0 0 0 0 0 0 0 0 0 0 0 0 0
0 0 0 0 0 0 0 0 0 0 0 0 0 0 0 0 0 0 0 0 0 0 0 0 0 0 0 0 0 0 0 0 0 0 0 0 0 0 0 0 0 0 0
0 0 0 0 0 0 0 0 0 0 0 0 0 0 0 0 0 0 0 0 0 0 0 0 0 0 0 0 0 0 0 0 0 0 0 0 0 0 0 0 0 0 0
0 0 0 0 0 0 0 0 0 0 0 0 0 0 0 0 0 0 0 0 0 0 0 0 0 0 0 0 0 0 0 0 0 0 0 0 0 0 0 0 0 0 0
0 0 0 0 0 0 0 0 0 0 0 0 0 0 0 0 0 0 0 0 0 0 0 0 0 0 0 0 0 0 0 0 0 0 0 0 0 0 0 0 0 0 0
0 0 0 0 0 0 0 0 0 0 0 0 0 0 0 0 0 0 0 0 0 0 0 0 0 0 0 0 0 0 0 0 0 0 0 0 0 0 0 0 0 0 0
0 0 0 0 0 0 0 0 0 0 0 0 0 0 0 0 0 0 0 0 0 0 0 0 0 0 0 0 0 0 0 0 0 0 0 0 0 0 0 0 0 0 0
0 0 0 0 0 0 0 0 0 0 0 0 0 0 0 0 0 0 0 0 0 0 0 0 0 0 0 0 0 0 0 0 0 0 0 0 0 0 0 0 0 0 0
0 0 0 0 0 0 0 0 0 0 0 0 0 0 0 0 0 0 0 0 0 0 0 0 0 0 0 0 0 0 0 0 0 0 0 0 0 0 0 0 0 0 0
0 0 0 0 0 0 0 0 0 0 0 0 0 0 0 0 0 0 0 0 0 0 0 0 0 0 0 0 0 0 0 0 0 0 0 0 0 0 0 0 0 0 0
0 0 0 0 0 0 0 0 0 0 0 0 0 0 0 0 0 0 0 0 0 0 0 0 0 0 0 0 0 0 0 0 0 0 0 0 0 0 0 0 0 0 0
0 0 0 0 0 0 0 0 0 0 0 0 0 0 0 0 0 0 0 0 0 0 0 0 0 0 0 0 0 0 0 0 0 0 0 0 0 0 0 0 0 0 0
0 0 0 0 0 0 0 0 0 0 0 0 0 0 0 0 0 0 0 0 0 0 0 0 0 0 0 0 0 0 0 0 0 0 0 0 0 0 0 0 0 0 0
0 0 0 0 0 0 0 0 0 0 0 0 0 0 0 0 0 0 0 0 0 0 0 0 0 0 0 0 0 0 0 0 0 0 0 0 0 0 0 0 0 0 0
0 0 0 0 0 0 0 0 0 0 0 0 0 0 0 0 0 0 0 0 0 0 0 0 0 0 0 0 0 0 0 0 0 0 0 0 0 0 0 0 0 0 0
0 0 0 0 0 0 0 0 0 0 0 0 0 0 0 0 0 0 0 0 0 0 0 0 0 0 0 0 0 0 0 0 0 0 0 0 0 0 0 0 0 0 0
0 0 0 0 0 0 0 0 0 0 0 0 0 0 0 0 0 0 0 0 0 0 0 0 0 0 0 0 0 0 0 0 0 0 0 0 0 0 0 0 0 0 0
0 0 0 0 0 0 0 0 0 0 0 0 0 0 0 0 0 0 0 0 0 0 0 0 0 0 0 0 0 0 0 0 0 0 0 0 0 0 0 0 0 0 0
0 0 0 0 0 0 0 0 0 0 0 0 0 0 0 0 0 0 0 0 0 0 0 0 0 0 0 0 0 0 0 0 0 0 0 0 0 0 0 0 0 0 0
0 0 0 0 0 0 0 0 0 0 0 0 0 0 0 0 0 0 0 0 0 0 0 0 0 0 0 0 0 0 0 0 0 0 0 0 0 0 0 0 0 0 0
-0 -0 -0 0 0 0 0 0 0 0 0 0 0 0 0 0 0 0 0 0 0 0 0 0 0 0 0 0 0 0 0 0 0 0 0 0 0 0 0 0 0 0 0
0 -0 -0 -0 0 0 0 0 0 0 0 0 0 0 0 0 0 0 0 0 0 0 0 0 0 0 0 0 0 0 0 0 0 0 0 0 0 0 0 0 0 0 0
0 0 0 0 0 -0 -0 0 0 0 0 0 0 0 0 0 0 0 0 0 0 0 0 0 0 0 0 0 0 0 0 0 0 0 0 0 0 0 0 0 0 0 0
0 0 0 0 0 0 -0 0 0 0 0 0 0 0 0 0 0 0 0 0 0 0 0 0 0 0 0 0 0 0 0 0 0 0 0 0 0 0 0 0 0 0 0
0 0 0 0 0 0 0 0 0 0 0 0 0 0 0 0 0 0 0 0 0 0 0 0 0 0 0 0 0 0 0 0 0 0 0 0 0 0 0 0 0 0 0
0 0 0 0 0 0 0 0 0 0 0 0 0 0 0 0 0 0 0 0 0 0 0 0 0 0 0 0 0 0 0 0 0 0 0 0 0 0 0 0 0 0 0
Wind_Speed
4 4 3 3 4 4 4 4 4 4 4 3 4 4 3 3 3 2 1 3 1 2 2 2 2 3 3 2 3 3 4 5 6 6 8 8 8 9 10 10 11 11 11
3 4 4 3 4 4 4 5 4 4 3 3 3 3 3 3 3 2 2 2 3 0 1 2 2 3 3 3 3 4 5 5 6 6 9 10 9 8 9 11 11 11 10
4 4 4 4 4 4 5 4 5 4 3 3 3 3 3 3 3 3 2 2 2 4 2 1 2 2 3 4 4 4 5 6 6 8 9 9 8 8 9 11 11 11 10
5 4 4 4 4 4 4 3 4 3 3 3 3 2 2 1 3 3 2 2 2 1 4 4 2 2 3 4 4 5 5 6 7 8 9 8 8 8 9 10 11 11 10
5 4 4 4 4 4 4 4 3 4 3 3 3 2 2 2 2 2 2 2 2 2 2 5 4 2 3 4 4 5 6 7 8 9 9 8 8 9 9 10 10 11 10
4 4 3 4 4 3 3 4 3 3 3 3 3 2 1 1 1 1 2 1 2 2 2 2 4 4 4 4 4 5 6 7 9 10 10 10 9 8 9 10 10 10 10
4 4 4 4 4 4 4 4 3 3 2 2 2 2 1 1 0 0 1 1 1 1 2 2 2 2 4 6 4 3 4 6 8 10 10 10 10 9 9 9 10 11 10
3 3 4 4 3 3 4 4 3 3 2 2 3 2 2 2 2 0 0 1 1 1 2 2 2 2 2 3 5 4 3 4 7 8 9 10 10 10 10 9 10 10 10
3 4 4 4 4 4 3 4 3 3 2 2 2 3 2 1 1 1 0 0 0 0 1 1 1 2 3 3 4 5 4 4 6 8 9 10 10 10 10 10 10 10 10
2 3 4 4 4 3 3 3 3 2 3 2 1 2 3 2 2 1 2 1 1 0 0 1 1 1 2 2 3 4 4 4 4 6 8 9 10 11 11 11 10 10 10
2 3 4 4 4 3 3 3 3 3 2 3 2 1 1 1 3 2 1 1 1 1 0 0 0 1 1 1 2 4 4 4 3 4 5 7 9 11 11 11 11 11 10
2 2 3 3 3 3 3 3 3 2 2 2 2 2 2 2 1 1 1 1 1 1 1 0 0 0 1 1 2 3 5 5 4 4 4 4 6 8 10 11 11 11 11
2 3 3 3 3 3 3 3 2 2 2 2 2 2 2 2 2 2 2 1 1 1 1 1 1 0 1 1 1 2 5 5 5 4 5 5 5 6 8 10 11 11 11
3 3 3 3 3 3 3 2 3 2 2 2 2 2 2 2 2 2 2 2 2 2 2 2 1 1 1 1 1 3 4 5 5 5 5 6 6 6 6 7 9 9 10
3 4 4 3 2 2 3 3 2 2 2 3 3 3 2 2 2 2 2 2 3 2 2 2 1 1 1 1 0 2 2 5 5 5 6 6 6 6 5 6 6 7 7
3 4 4 3 2 2 3 3 3 2 3 2 2 3 3 2 2 2 2 2 3 3 1 1 1 1 0 1 1 2 1 4 5 5 5 6 6 5 5 5 5 6 7
4 4 4 4 3 3 3 2 3 3 3 2 2 2 3 3 2 2 2 2 2 3 2 1 1 1 1 2 1 1 1 2 4 5 5 5 5 5 5 5 5 6 6
5 5 4 4 3 3 3 3 3 3 3 3 2 2 3 2 3 3 3 3 3 3 3 2 1 1 1 1 2 2 2 1 2 5 5 5 5 5 5 5 5 5 5
5 5 5 5 4 4 4 4 4 4 3 3 3 3 3 3 3 3 3 3 3 3 4 3 2 1 1 1 2 2 2 1 2 4 6 6 6 5 5 5 5 6 6
6 6 5 5 5 5 5 5 5 5 4 4 4 4 4 4 4 4 3 4 3 3 4 4 3 2 2 2 2 2 2 2 2 3 3 3 5 7 7 7 6 6 6
7 6 6 6 6 5 4 5 5 5 5 4 5 5 4 4 3 3 3 3 4 4 4 4 4 3 3 3 3 2 2 2 2 2 2 3 4 4 5 7 7 7 6
7 6 7 7 6 5 3 5 7 6 6 5 5 5 5 6 6 7 6 5 5 5 5 4 4 5 4 4 3 3 2 2 2 2 2 2 2 3 3 3 4 6 6
7 7 7 7 8 6 4 6 8 8 7 6 6 5 4 4 6 7 8 10 9 8 7 6 5 5 4 4 4 5 4 4 2 1 2 2 2 2 1 2 6 6 6
6 7 7 8 7 6 6 7 8 10 8 7 6 6 6 6 5 6 6 7 7 8 8 8 6 5 4 3 4 4 3 2 1 2 2 2 2 1 1 2 5 5 5
7 7 7 8 8 8 7 7 8 8 7 8 7 7 7 6 4 5 7 7 7 6 4 3 3 1 1 1 2 3 4 4 3 2 2 2 1 1 1 2 4 5 5
7 7 7 8 9 9 6 8 9 7 8 7 6 6 5 6 4 6 8 7 7 6 5 6 6 6 6 6 6 6 5 4 3 2 3 2 2 1 1 1 2 3 3
Wind_Direction
331 339 323 327 316 322 312 306 301 313 302 296 291 288 285 274 268 273 149 106 342 305 247 229 207 201 198 176 159 145 131 130 127 137 147 139 134 134 137 138 137 132 133
337 333 329 329 325 322 320 308 305 304 295 293 287 290 288 287 282 271 265 175 165 274 280 228 196 188 188 177 159 150 144 138 136 130 137 137 136 137 140 147 143 139 140
336 336 330 331 331 321 311 308 306 297 291 283 271 274 277 285 285 277 263 262 202 166 166 197 184 184 180 168 160 154 154 151 145 139 135 137 138 140 144 147 144 144 145
345 339 331 334 335 325 316 310 300 293 285 286 285 280 277 267 275 286 258 236 245 223 159 145 156 175 180 173 163 160 162 159 153 150 144 145 146 145 149 149 147 149 150
340 338 337 334 335 329 325 318 319 310 303 303 288 268 275 281 296 288 279 266 243 233 204 141 155 155 164 167 168 173 172 169 166 162 155 155 151 151 153 153 152 153 153
343 338 328 334 336 329 330 321 317 306 301 293 291 299 288 282 278 298 305 290 256 232 218 183 175 154 143 151 165 177 180 175 172 167 164 164 164 161 160 158 158 156 158
340 339 326 339 335 335 329 322 320 305 294 297 274 259 222 207 277 297 298 291 250 237 210 198 203 173 156 150 154 170 176 177 177 173 169 168 168 167 167 164 165 165 167
336 331 333 328 334 327 324 326 321 308 309 294 285 267 235 180 160 121 240 265 266 207 199 196 190 179 189 163 140 153 171 182 179 175 174 174 173 170 169 169 171 173 175
333 331 331 326 328 324 333 325 316 309 305 304 309 300 286 281 145 149 66 223 237 219 202 213 223 201 186 173 158 152 163 184 182 178 179 180 179 175 174 177 177 179 181
326 327 323 319 320 326 326 319 329 305 296 294 283 291 310 335 290 182 158 145 114 133 173 211 235 218 201 180 155 134 153 174 180 184 185 185 183 180 180 182 180 180 179
316 321 320 318 318 318 326 327 324 310 296 299 300 290 277 271 273 279 198 171 158 131 123 188 237 246 221 191 184 154 163 171 169 177 189 191 190 186 185 186 184 184 185
305 330 321 315 313 319 321 320 315 309 300 300 294 292 292 287 295 280 252 205 180 135 133 125 259 270 247 202 185 144 170 172 174 173 186 194 198 194 192 191 190 190 193
308 331 323 318 322 319 318 311 298 302 285 287 288 289 292 296 312 294 269 243 212 176 163 172 159 224 240 206 147 161 175 181 181 182 186 192 196 199 202 198 195 196 198
312 320 311 316 316 313 305 297 288 285 280 273 275 271 268 277 287 283 277 268 235 201 189 166 148 153 273 254 82 234 183 176 189 196 195 197 198 198 200 202 202 203 201
297 303 298 303 304 300 300 295 284 285 280 278 273 259 258 254 257 273 277 274 269 238 195 161 175 137 231 232 105 235 206 160 188 198 198 200 196 195 197 201 200 200 199
287 292 295 297 292 282 284 289 288 295 278 263 270 269 264 253 247 251 263 269 279 280 257 143 161 129 219 224 167 249 205 165 184 189 195 191 185 188 190 189 194 196 197
271 280 287 291 293 283 275 271 281 281 275 262 246 246 242 248 238 228 236 251 259 263 250 233 198 221 210 217 186 226 217 204 166 170 183 185 180 183 188 191 195 193 195
267 275 279 279 283 281 279 279 279 274 269 269 256 244 236 223 233 237 230 235 243 251 250 242 216 224 242 211 210 217 219 202 187 150 174 181 179 183 190 196 198 192 189
264 263 266 271 273 274 273 270 271 270 266 267 261 250 249 235 225 219 225 229 234 236 244 239 229 231 245 218 212 212 203 198 214 162 175 184 182 185 190 196 197 196 194
261 264 262 264 268 268 265 264 261 262 260 253 252 250 249 246 242 231 225 226 230 231 231 227 222 222 224 225 223 214 206 185 206 187 173 179 176 185 189 192 195 197 198
258 260 264 262 262 263 266 272 265 262 263 257 247 243 241 253 291 279 265 243 229 230 225 224 220 221 215 213 219 219 218 195 186 184 189 190 183 191 187 189 194 194 196
253 255 258 259 260 256 254 255 267 264 260 258 255 249 232 221 225 227 245 259 266 254 239 225 226 224 223 217 221 226 217 212 200 172 213 206 198 202 197 189 159 175 186
248 252 254 254 255 248 230 238 242 260 261 262 262 255 244 232 230 230 215 218 231 244 259 262 245 239 235 220 219 221 219 229 231 173 211 212 192 200 185 142 152 177 184
250 249 251 253 254 250 228 235 235 248 254 252 251 251 248 242 232 244 235 228 227 220 223 236 247 249 243 234 232 236 232 226 218 183 205 215 196 193 166 143 141 161 173
258 252 251 251 250 245 221 227 234 246 245 246 244 244 249 243 205 229 240 235 228 217 197 236 302 308 22 245 244 215 202 209 211 186 194 222 185 196 195 161 134 150 158
258 259 255 252 251 253 223 218 232 245 245 243 237 232 228 248 220 216 237 235 231 222 209 195 202 202 208 193 208 224 216 219 218 200 171 205 192 194 201 154 150 159 155